K5TCS Weather Reports


Display with metric or nautical units.
time (UTC)temp
F
wind
direction
speed
MPH
gust
MPH
rain 1hr
in
rain 24hr
in
rain mn
in
humidity
%
barometer
mb
20260510185015 59 68 5.0 15.0 0.00 0.00 0.00 52 1022.6
20260510184015 61 45 5.0 16.0 0.00 0.00 0.00 47 1022.8
20260510183016 62 45 4.0 12.0 0.00 0.00 0.00 46 1022.7
20260510182017 63 45 4.0 13.0 0.00 0.00 0.00 44 1023.7
20260510181017 66 45 7.0 15.0 0.00 0.00 0.00 40 1024.1
20260510180017 69 45 6.0 16.0 0.00 0.00 0.00 40 1025.0
20260510175057 68 45 5.0 13.0 0.00 0.00 0.00 40 1025.3
20260510174018 67 23 6.0 14.0 0.00 0.00 0.00 42 1024.9
20260510173017 64 45 3.0 10.0 0.00 0.00 0.00 43 1023.7
20260510172017 65 45 5.0 13.0 0.00 0.00 0.00 40 1023.8
20260510171017 68 45 6.0 19.0 0.00 0.00 0.00 39 1024.5
20260510170017 68 45 5.0 15.0 0.00 0.00 0.00 39 1024.4
20260510165017 67 45 7.0 17.0 0.00 0.00 0.00 39 1023.8
20260510164017 67 45 7.0 20.0 0.00 0.00 0.00 40 1023.6
20260510163017 68 45 5.0 14.0 0.00 0.00 0.00 41 1023.6
20260510162017 66 23 6.0 15.0 0.00 0.00 0.00 41 1023.5
20260510161017 66 45 5.0 14.0 0.00 0.00 0.00 42 1023.5
20260510160017 65 45 6.0 15.0 0.00 0.00 0.00 41 1023.4
20260510155017 64 45 6.0 16.0 0.00 0.00 0.00 42 1023.9
20260510154017 64 45 6.0 17.0 0.00 0.00 0.00 41 1023.7
20260510153017 64 45 5.0 14.0 0.00 0.00 0.00 41 1023.6
20260510152017 63 45 6.0 15.0 0.00 0.00 0.00 41 1023.9
20260510151017 63 45 6.0 18.0 0.00 0.00 0.00 40 1023.6
20260510150017 63 45 4.0 11.0 0.00 0.00 0.00 39 1023.0
20260510145017 61 68 1.0 6.0 0.00 0.00 0.00 40 1023.5
20260510144017 61 45 2.0 9.0 0.00 0.00 0.00 39 1023.4
20260510143017 61 45 2.0 9.0 0.00 0.00 0.00 39 1023.4
20260510142017 61 45 2.0 9.0 0.00 0.00 0.00 38 1024.3
20260510141017 62 23 3.0 10.0 0.00 0.00 0.00 36 1024.4
20260510140037 64 45 6.0 14.0 0.00 0.00 0.00 35 1024.8
20260510135017 63 45 5.0 12.0 0.00 0.00 0.00 36 1025.8
20260510134017 60 23 2.0 5.0 0.00 0.00 0.00 37 1025.3
20260510133017 59 45 3.0 13.0 0.00 0.00 0.00 37 1024.2
20260510132017 59 45 3.0 10.0 0.00 0.00 0.00 35 1024.3
20260510131017 58 23 5.0 15.0 0.00 0.00 0.00 34 1024.2
20260510130037 56 45 1.0 6.0 0.00 0.00 0.00 35 1023.3
20260510125017 56 45 3.0 9.0 0.00 0.00 0.00 34 1022.6
20260510124017 58 68 3.0 10.0 0.00 0.00 0.00 33 1023.0
20260510123016 56 248 2.0 10.0 0.00 0.00 0.00 34 1022.3
20260510122016 56 248 2.0 6.0 0.00 0.00 0.00 34 1022.4
20260510121016 56 293 2.0 7.0 0.00 0.00 0.00 34 1022.4
20260510120037 59 293 3.0 6.0 0.00 0.00 0.00 32 1022.8
20260510115016 61 270 4.0 10.0 0.00 0.00 0.00 29 1023.6
20260510114016 61 293 4.0 8.0 0.00 0.00 0.00 30 1023.5
20260510113037 60 293 4.0 11.0 0.00 0.00 0.00 31 1023.1
20260510112017 58 293 3.0 8.0 0.00 0.00 0.00 33 1022.6
20260510111016 54 270 1.0 5.0 0.00 0.00 0.00 38 1021.8
20260510110036 51 293 1.0 3.0 0.00 0.00 0.00 40 1021.1
20260510105016 57 270 2.0 10.0 0.00 0.00 0.00 34 1022.4
20260510104036 57 270 3.0 6.0 0.00 0.00 0.00 35 1022.2
20260510103016 54 270 2.0 6.0 0.00 0.00 0.00 36 1021.4
20260510102016 55 270 2.0 5.0 0.00 0.00 0.00 35 1021.8
20260510101016 56 270 3.0 7.0 0.00 0.00 0.00 34 1022.1
20260510100016 57 270 3.0 9.0 0.00 0.00 0.00 33 1022.1
20260510095016 57 270 5.0 11.0 0.00 0.00 0.00 33 1022.1
20260510094016 55 248 3.0 7.0 0.00 0.00 0.00 34 1021.5
20260510093016 54 270 3.0 10.0 0.00 0.00 0.00 35 1021.5
20260510092016 54 248 3.0 6.0 0.00 0.00 0.00 35 1021.6
20260510091036 55 248 4.0 9.0 0.00 0.00 0.00 34 1021.9
20260510090016 56 248 4.0 10.0 0.00 0.00 0.00 34 1021.9
20260510085056 56 248 4.0 10.0 0.00 0.00 0.00 33 1022.4
20260510084016 53 248 3.0 6.0 0.00 0.00 0.00 36 1021.5
20260510083016 54 248 3.0 9.0 0.00 0.00 0.00 35 1021.8
20260510082036 54 248 3.0 8.0 0.00 0.00 0.00 35 1021.1
20260510081016 54 270 2.0 5.0 0.00 0.00 0.00 35 1021.2
20260510080036 54 248 3.0 6.0 0.00 0.00 0.00 34 1021.2
20260510075016 56 248 4.0 10.0 0.00 0.00 0.00 33 1021.2
20260510074016 58 270 3.0 7.0 0.00 0.00 0.00 30 1022.1
20260510073016 59 293 3.0 7.0 0.00 0.00 0.00 29 1022.3
20260510072016 55 270 3.0 7.0 0.00 0.00 0.00 33 1021.6
20260510071016 52 248 3.0 7.0 0.00 0.00 0.00 38 1020.5
20260510070016 53 270 3.0 6.0 0.00 0.00 0.00 36 1020.8
20260510065016 55 293 2.0 5.0 0.00 0.00 0.00 33 1021.3
20260510064016 54 270 2.0 6.0 0.00 0.00 0.00 34 1021.4
20260510063036 53 248 1.0 4.0 0.00 0.00 0.00 36 1020.8
20260510062015 53 225 1.0 4.0 0.00 0.00 0.00 36 1021.3
20260510061016 53 0.0 3.0 0.00 0.00 0.00 36 1021.5
20260510060016 54 248 1.0 4.0 0.00 0.00 0.00 35 1022.0
20260510055018 55 248 1.0 5.0 0.00 0.00 0.00 34 1022.0
20260510054017 57 248 2.0 10.0 0.00 0.00 0.00 33 1022.4
20260510053037 58 248 3.0 11.0 0.00 0.00 0.00 32 1022.5
20260510052018 58 248 3.0 9.0 0.00 0.00 0.00 32 1022.1
20260510051017 58 248 3.0 7.0 0.00 0.00 0.00 32 1022.2
20260510050017 57 248 2.0 8.0 0.00 0.00 0.00 33 1022.3
20260510045017 58 248 2.0 7.0 0.00 0.00 0.00 33 1022.3
20260510044017 57 248 2.0 6.0 0.00 0.00 0.00 33 1022.3
20260510043037 57 270 1.0 5.0 0.00 0.00 0.00 33 1022.5
20260510042018 56 248 1.0 4.0 0.00 0.00 0.00 34 1021.9
20260510041017 57 248 1.0 5.0 0.00 0.00 0.00 34 1022.4
20260510040017 57 270 1.0 5.0 0.00 0.00 0.00 33 1022.3
20260510035017 56 0.0 3.0 0.00 0.00 0.00 34 1021.4
20260510034017 57 0.0 3.0 0.00 0.00 0.00 34 1021.8
20260510033017 58 0.0 3.0 0.00 0.00 0.00 33 1021.6
20260510032017 59 248 1.0 4.0 0.00 0.00 0.00 32 1021.2
20260510031037 59 225 1.0 5.0 0.00 0.00 0.00 32 1021.0
20260510030017 60 0.0 2.0 0.00 0.00 0.00 30 1021.0
20260510025017 61 0.0 2.0 0.00 0.00 0.00 29 1019.9
20260510024017 63 0.0 2.0 0.00 0.00 0.00 28 1020.3
20260510023017 65 0.0 2.0 0.00 0.00 0.00 26 1020.7
20260510022017 65 0.0 2.0 0.00 0.00 0.00 26 1018.8
20260510021017 67 203 1.0 4.0 0.00 0.00 0.00 25 1019.0
20260510020057 68 203 1.0 4.0 0.00 0.00 0.00 24 1019.5
20260510015017 69 203 1.0 6.0 0.00 0.00 0.00 23 1019.0
20260510014017 70 0.0 4.0 0.00 0.00 0.00 23 1019.0
20260510013017 72 225 1.0 6.0 0.00 0.00 0.00 21 1019.3
20260510012017 74 270 3.0 9.0 0.00 0.00 0.00 21 1019.0
20260510011017 75 248 3.0 10.0 0.00 0.00 0.00 20 1019.4
20260510010017 75 270 4.0 12.0 0.00 0.00 0.00 20 1019.4
20260510005017 76 270 5.0 14.0 0.00 0.00 0.00 19 1018.4
20260510004017 77 270 5.0 13.0 0.00 0.00 0.00 19 1018.5
20260510003017 77 270 5.0 12.0 0.00 0.00 0.00 19 1019.1
20260510002137 77 270 5.0 16.0 0.00 0.00 0.00 19 1018.2
20260510001016 77 270 5.0 16.0 0.00 0.00 0.00 18 1018.2
20260510000057 77 270 6.0 14.0 0.00 0.00 0.00 19 1018.3
20260509235016 78 315 6.0 15.0 0.00 0.00 0.00 18 1019.1
20260509234016 78 270 6.0 14.0 0.00 0.00 0.00 18 1019.2
20260509233017 78 315 6.0 13.0 0.00 0.00 0.00 18 1019.0
20260509232016 79 270 5.0 15.0 0.00 0.00 0.00 18 1019.8
20260509231016 79 270 8.0 15.0 0.00 0.00 0.00 17 1019.5
20260509230016 79 270 8.0 15.0 0.00 0.00 0.00 17 1019.4
20260509225016 79 293 7.0 13.0 0.00 0.00 0.00 17 1019.4
20260509224016 80 270 5.0 15.0 0.00 0.00 0.00 17 1019.6
20260509223016 79 270 7.0 17.0 0.00 0.00 0.00 18 1019.4
20260509222016 80 270 7.0 16.0 0.00 0.00 0.00 17 1018.9
20260509221016 81 248 6.0 16.0 0.00 0.00 0.00 18 1018.9
20260509220036 80 293 7.0 15.0 0.00 0.00 0.00 17 1018.8
20260509215016 80 248 7.0 15.0 0.00 0.00 0.00 18 1018.9
20260509214056 81 248 7.0 15.0 0.00 0.00 0.00 18 1019.1
20260509213056 80 270 8.0 17.0 0.00 0.00 0.00 18 1019.2
20260509212016 81 225 6.0 16.0 0.00 0.00 0.00 18 1019.2
20260509211016 81 315 5.0 17.0 0.00 0.00 0.00 18 1019.9
20260509210016 82 225 7.0 16.0 0.00 0.00 0.00 18 1020.1
20260509205016 81 248 9.0 18.0 0.00 0.00 0.00 18 1020.1
20260509204016 81 270 7.0 18.0 0.00 0.00 0.00 18 1020.3
20260509203016 81 248 7.0 15.0 0.00 0.00 0.00 18 1020.2
20260509202016 82 225 6.0 15.0 0.00 0.00 0.00 19 1020.5
20260509201016 79 270 5.0 15.0 0.00 0.00 0.00 20 1020.1
20260509200016 77 0 4.0 16.0 0.00 0.00 0.00 19 1020.0
20260509195016 78 315 7.0 14.0 0.00 0.00 0.00 18 1020.2
20260509194016 78 338 4.0 13.0 0.00 0.00 0.00 19 1020.3
20260509193016 77 315 3.0 12.0 0.00 0.00 0.00 19 1019.8
20260509192036 78 315 3.0 10.0 0.00 0.00 0.00 20 1020.3
20260509191016 80 225 5.0 15.0 0.00 0.00 0.00 19 1020.4
20260509190036 79 270 3.0 13.0 0.00 0.00 0.00 19 1020.8